EW8792 Weather Reports


Display with metric or nautical units.
time (UTC)temp
F
wind
direction
speed
MPH
gust
MPH
rain 1hr
in
rain 24hr
in
rain mn
in
humidity
%
barometer
mb
20181114182005 47 0 0.0 0.0 0.00 0.00 0.00 87 1026.4
20181114181504 47 0 0.0 0.0 0.00 0.00 0.00 87 1026.5
20181114181005 47 314 0.0 1.0 0.00 0.00 0.00 88 1026.5
20181114180505 47 314 0.0 2.0 0.00 0.00 0.00 88 1026.5
20181114180005 47 314 0.0 2.0 0.00 0.00 0.00 88 1026.5
20181114175505 47 314 0.0 1.0 0.00 0.00 0.00 88 1026.3
20181114175005 47 314 0.0 2.0 0.00 0.00 0.00 88 1026.3
20181114174504 47 318 0.0 2.0 0.00 0.00 0.00 88 1026.4
20181114174005 46 319 0.0 2.0 0.00 0.00 0.00 88 1026.2
20181114173504 46 314 0.0 1.0 0.00 0.00 0.00 88 1026.2
20181114173006 46 0 0.0 0.0 0.00 0.00 0.00 88 1026.2
20181114172505 46 0 0.0 0.0 0.00 0.00 0.00 88 1026.2
20181114172005 46 0 0.0 0.0 0.00 0.00 0.00 88 1026.2
20181114171505 46 1 0.0 1.0 0.00 0.00 0.00 87 1026.0
20181114171006 46 344 0.0 1.0 0.00 0.00 0.00 87 1026.3
20181114170505 46 319 0.0 1.0 0.00 0.00 0.00 87 1026.4
20181114170005 46 279 0.0 1.0 0.00 0.00 0.00 87 1026.4
20181114165505 47 314 0.0 1.0 0.00 0.00 0.00 87 1026.5
20181114165005 47 314 0.0 1.0 0.00 0.00 0.00 87 1026.4
20181114164505 47 314 0.0 2.0 0.00 0.00 0.00 87 1026.5
20181114164006 47 314 0.0 2.0 0.00 0.00 0.00 87 1026.5
20181114163504 46 314 0.0 2.0 0.00 0.00 0.00 87 1026.4
20181114163006 46 314 1.0 2.0 0.00 0.00 0.00 86 1026.5
20181114162504 46 314 0.0 1.0 0.00 0.00 0.00 86 1026.4
20181114162006 46 314 0.0 1.0 0.00 0.00 0.00 85 1026.4
20181114161504 46 314 0.0 1.0 0.00 0.00 0.00 85 1026.5
20181114161006 47 0 0.0 0.0 0.00 0.00 0.00 85 1026.7
20181114160505 47 0 0.0 0.0 0.00 0.00 0.00 85 1026.8
20181114160006 47 0 0.0 0.0 0.00 0.00 0.00 85 1026.6
20181114155504 47 0 0.0 0.0 0.00 0.00 0.00 84 1026.8
20181114155006 47 0 0.0 0.0 0.00 0.00 0.00 84 1027.0
20181114154504 47 0 0.0 0.0 0.00 0.00 0.00 84 1026.8
20181114154006 47 0 0.0 0.0 0.00 0.00 0.00 84 1026.9
20181114153505 47 45 0.0 1.0 0.00 0.00 0.00 84 1026.7
20181114153005 46 45 0.0 1.0 0.00 0.00 0.00 84 1026.8
20181114152505 46 45 0.0 1.0 0.00 0.00 0.00 83 1026.8
20181114152005 46 45 0.0 1.0 0.00 0.00 0.00 83 1026.7
20181114151504 46 0 0.0 0.0 0.00 0.00 0.00 82 1026.6
20181114151005 46 0 0.0 0.0 0.00 0.00 0.00 82 1026.7
20181114150604 47 0 0.0 0.0 0.00 0.00 0.00 82 1026.7
20181114142005 52 329 0.0 2.0 0.00 0.00 0.00 74 1026.2
20181114141505 52 346 0.0 2.0 0.00 0.00 0.00 72 1026.2
20181114141005 52 350 0.0 2.0 0.00 0.00 0.00 72 1026.2
20181114140505 52 314 0.0 2.0 0.00 0.00 0.00 72 1026.0
20181114140005 52 314 0.0 3.0 0.00 0.00 0.00 72 1026.2
20181114135504 52 320 2.0 3.0 0.00 0.00 0.00 72 1026.2
20181114135006 52 319 2.0 3.0 0.00 0.00 0.00 73 1026.3
20181114134504 52 320 0.0 2.0 0.00 0.00 0.00 73 1026.1
20181114134005 52 339 1.0 2.0 0.00 0.00 0.00 73 1026.3
20181114133504 52 340 0.0 3.0 0.00 0.00 0.00 73 1026.4
20181114133005 52 327 2.0 3.0 0.00 0.00 0.00 72 1026.2
20181114132505 52 327 2.0 3.0 0.00 0.00 0.00 72 1026.3
20181114132005 52 1 1.0 4.0 0.00 0.00 0.00 71 1026.0
20181114131505 53 353 0.0 4.0 0.00 0.00 0.00 71 1026.4
20181114131005 53 322 2.0 4.0 0.00 0.00 0.00 71 1026.2
20181114130505 53 316 1.0 4.0 0.00 0.00 0.00 70 1026.3
20181114130005 53 320 2.0 4.0 0.00 0.00 0.00 70 1026.6
20181114125505 54 338 1.0 5.0 0.00 0.00 0.00 68 1026.6
20181114125005 54 340 2.0 5.0 0.00 0.00 0.00 67 1026.7
20181114124505 55 320 2.0 4.0 0.00 0.00 0.00 68 1026.6
20181114124005 55 324 2.0 4.0 0.00 0.00 0.00 69 1026.6
20181114123505 53 322 2.0 6.0 0.00 0.00 0.00 71 1026.6
20181114123005 53 315 1.0 6.0 0.00 0.00 0.00 71 1026.8
20181114122505 53 313 2.0 5.0 0.00 0.00 0.00 71 1026.9
20181114122005 53 309 3.0 5.0 0.00 0.00 0.00 71 1026.8
20181114121504 53 330 1.0 5.0 0.00 0.00 0.00 71 1026.9
20181114121005 53 326 2.0 5.0 0.00 0.00 0.00 71 1027.0
20181114120504 53 299 2.0 4.0 0.00 0.00 0.00 72 1026.8
20181114120005 53 295 2.0 5.0 0.00 0.00 0.00 72 1026.9
20181114115505 53 316 2.0 5.0 0.00 0.00 0.00 72 1027.0
20181114115005 53 339 2.0 4.0 0.00 0.00 0.00 73 1027.0
20181114114505 53 326 1.0 4.0 0.00 0.00 0.00 73 1027.1
20181114114005 53 303 2.0 4.0 0.00 0.00 0.00 73 1027.0
20181114113504 52 296 1.0 4.0 0.00 0.00 0.00 74 1026.9
20181114113005 52 307 1.0 4.0 0.00 0.00 0.00 75 1027.2
20181114112504 52 331 1.0 8.0 0.00 0.00 0.00 76 1027.2
20181114112005 51 336 2.0 8.0 0.00 0.00 0.00 77 1027.0
20181114111506 51 313 3.0 6.0 0.00 0.00 0.00 78 1027.4
20181114111005 51 307 1.0 6.0 0.00 0.00 0.00 78 1027.2
20181114110505 51 304 2.0 6.0 0.00 0.00 0.00 79 1027.4
20181114110005 51 294 2.0 8.0 0.00 0.00 0.00 79 1027.6
20181114105504 51 302 4.0 8.0 0.00 0.00 0.00 79 1027.5
20181114105005 51 323 2.0 5.0 0.00 0.00 0.00 80 1027.6
20181114104505 51 321 1.0 5.0 0.00 0.00 0.00 80 1027.7
20181114104005 51 308 1.0 5.0 0.00 0.00 0.00 81 1027.8
20181114103505 51 313 3.0 5.0 0.00 0.00 0.00 81 1027.7
20181114103005 51 301 1.0 4.0 0.00 0.00 0.00 81 1027.8
20181114102505 51 299 2.0 6.0 0.00 0.00 0.00 81 1027.9
20181114102005 51 315 1.0 6.0 0.00 0.00 0.00 81 1027.8
20181114101505 51 312 2.0 5.0 0.00 0.00 0.00 81 1027.9
20181114101005 51 323 1.0 4.0 0.00 0.00 0.00 81 1027.8
20181114100505 51 295 2.0 5.0 0.00 0.00 0.00 82 1027.9
20181114100005 51 304 1.0 5.0 0.00 0.00 0.00 83 1028.0
20181114095504 51 329 2.0 5.0 0.00 0.00 0.00 85 1028.1
20181114095005 50 332 1.0 4.0 0.00 0.00 0.00 86 1028.3
20181114094505 50 349 1.0 5.0 0.00 0.00 0.00 88 1028.2
20181114094005 49 329 1.0 5.0 0.00 0.00 0.00 90 1028.3
20181114093505 49 278 2.0 6.0 0.00 0.00 0.00 91 1028.2
20181114093005 49 300 2.0 6.0 0.00 0.00 0.00 92 1028.5
20181114092505 49 311 2.0 6.0 0.00 0.00 0.00 94 1028.5
20181114092005 49 315 2.0 4.0 0.00 0.00 0.00 95 1028.5
20181114091005 49 307 0.0 3.0 0.00 0.00 0.00 97 1028.5
20181114090504 49 303 1.0 3.0 0.00 0.00 0.00 97 1028.6
20181114090005 49 335 1.0 3.0 0.00 0.00 0.00 98 1028.5
20181114085505 49 351 1.0 3.0 0.00 0.00 0.00 99 1028.8
20181114085005 48 334 1.0 2.0 0.00 0.00 0.00 99 1028.7
20181114084505 48 323 0.0 3.0 0.00 0.00 0.00 99 1028.7
20181114084005 48 304 0.0 3.0 0.00 0.00 0.00 99 1028.8
20181114083505 48 285 0.0 2.0 0.00 0.00 0.00 99 1029.0
20181114083005 48 305 0.0 2.0 0.00 0.00 0.00 99 1029.0
20181114082506 47 307 0.0 2.0 0.00 0.00 0.00 99 1029.0
20181114082005 47 337 0.0 2.0 0.00 0.00 0.00 99 1029.0
20181114081505 47 314 0.0 2.0 0.00 0.00 0.00 99 1029.0
20181114081005 47 119 0.0 2.0 0.00 0.00 0.00 99 1028.9
20181114080504 47 89 0.0 2.0 0.00 0.00 0.00 99 1029.0
20181114080005 47 135 1.0 2.0 0.00 0.00 0.00 99 1029.0
20181114075504 47 331 0.0 2.0 0.00 0.00 0.00 99 1029.1
20181114075005 46 322 0.0 2.0 0.00 0.00 0.00 99 1029.2
20181114074505 46 303 0.0 4.0 0.00 0.00 0.00 97 1029.2
20181114074005 46 286 1.0 4.0 0.00 0.00 0.00 97 1029.2
20181114073504 46 263 1.0 3.0 0.00 0.00 0.00 97 1029.1
20181114073005 46 276 1.0 3.0 0.00 0.00 0.00 97 1029.1
20181114072504 46 306 0.0 2.0 0.00 0.00 0.00 97 1029.0
20181114072005 46 297 0.0 3.0 0.00 0.00 0.00 97 1029.0
20181114071505 46 306 0.0 3.0 0.00 0.00 0.00 97 1028.9
20181114071005 46 359 0.0 2.0 0.00 0.00 0.00 97 1029.0
20181114070504 46 355 0.0 2.0 0.00 0.00 0.00 97 1029.0
20181114070005 45 15 0.0 2.0 0.00 0.00 0.00 97 1029.0
20181114065504 45 9 0.0 2.0 0.00 0.00 0.00 97 1028.8
20181114065005 45 27 0.0 3.0 0.00 0.00 0.00 97 1028.9
20181114064504 45 28 1.0 3.0 0.00 0.00 0.00 97 1029.0
20181114064005 45 290 1.0 4.0 0.00 0.00 0.00 97 1029.0
20181114063505 45 344 1.0 4.0 0.00 0.00 0.00 97 1028.8
20181114063005 45 29 2.0 3.0 0.00 0.00 0.00 97 1028.9
20181114062506 45 71 1.0 3.0 0.00 0.00 0.00 97 1028.9
20181114062005 45 126 0.0 4.0 0.00 0.00 0.00 97 1028.8
20181114061504 44 105 0.0 4.0 0.00 0.00 0.00 98 1028.8
20181114061005 44 31 1.0 2.0 0.00 0.00 0.00 98 1028.7
20181114060504 44 340 0.0 2.0 0.00 0.00 0.00 98 1029.0
20181114060005 44 347 0.0 2.0 0.00 0.00 0.00 98 1028.7
20181114055504 43 350 0.0 2.0 0.00 0.00 0.00 98 1029.1
20181114055005 42 0 0.0 0.0 0.00 0.00 0.00 99 1029.0
20181114054505 42 0 0.0 0.0 0.00 0.00 0.00 99 1029.1
20181114054005 42 0 0.0 0.0 0.00 0.00 0.00 99 1029.0
20181114053505 42 0 0.0 0.0 0.00 0.00 0.00 99 1028.7
20181114053006 42 0 0.0 0.0 0.00 0.00 0.00 99 1028.9
20181114052505 41 0 0.0 0.0 0.00 0.00 0.00 99 1029.0
20181114052005 41 0 0.0 0.0 0.00 0.00 0.00 99 1029.0
20181114051506 41 0 0.0 0.0 0.00 0.00 0.00 99 1028.9
20181114045005 42 0 0.0 0.0 0.00 0.00 0.00 99 1028.9
20181114044505 42 0 0.0 0.0 0.00 0.00 0.00 99 1028.9
20181114044005 41 0 0.0 0.0 0.00 0.00 0.00 99 1028.8
20181114043505 41 0 0.0 0.0 0.00 0.00 0.00 99 1028.9
20181114043004 41 0 0.0 0.0 0.00 0.00 0.00 99 1029.0
20181114042504 41 0 0.0 0.0 0.00 0.00 0.00 99 1028.8
20181114042005 41 0 0.0 0.0 0.00 0.00 0.00 99 1029.0
20181114041505 41 0 0.0 0.0 0.00 0.00 0.00 99 1029.1
20181114041005 41 0 0.0 0.0 0.00 0.00 0.00 99 1029.0
20181114040504 41 0 0.0 0.0 0.00 0.00 0.00 99 1029.0
20181114040005 41 0 0.0 0.0 0.00 0.00 0.00 99 1029.1
20181114035505 40 0 0.0 0.0 0.00 0.00 0.00 99 1029.2
20181114035005 40 0 0.0 0.0 0.00 0.00 0.00 99 1029.1
20181114034505 40 0 0.0 0.0 0.00 0.00 0.00 99 1029.2
20181114034006 40 0 0.0 0.0 0.00 0.00 0.00 99 1029.2
20181114033505 40 0 0.0 0.0 0.00 0.00 0.00 99 1029.1